Regional Weather Roundup
Issued by NWS Charleston, SC

Current Version | Previous Version | Graphics & Text | Print | Product List | Glossary On
Versions: 1 2 3 4 5 6 7 8 9 10 11 12 13 14 15 16 17 18 19 20 21 22 23 24 25 26 27 28 29 30 31 32 33 34 35 36 37 38 39 40 41 42 43 44 45 46 47 48 49 50
000
ASUS42 KCHS 290025
RWRCHS

REGIONAL WEATHER ROUNDUP
NATIONAL WEATHER SERVICE CHARLESTON SC
700 PM EST FRI NOV 28 2014

NOTE: "FAIR" INDICATES FEW OR NO CLOUDS BELOW 12,000 FEET WITH NO
SIGNIFICANT WEATHER AND/OR OBSTRUCTIONS TO VISIBILITY.

NOT ALL STATIONS ARE QUALITY CONTROLLED BY THE NATIONAL
WEATHER SERVICE. USE DATA WITH CAUTION...ESPECIALLY
DEWPOINT OBSERVATIONS.

SCZ027-030-031-034>040-042>050-290100-
...SOUTHEAST SOUTH CAROLINA...

CITY           SKY/WX    TMP DP  RH WIND       PRES   REMARKS
N CHARLESTON   CLEAR     40  28  62 CALM      30.34S
6HR MIN TEMP:  39; 6HR MAX TEMP:  51;

WATERFRONT PRK   N/A     46 N/A N/A N5          N/A
MOUNT PLEASANT FAIR      36  34  93 CALM      30.34F
JOHNS ISLAND   CLEAR     39  36  87 CALM      30.35S
PINOPOLIS        N/A     46  27  46 W7        30.27R
MONCKS CORNER  FAIR      37  36  93 CALM      30.34S
SUMMERVILLE    FAIR      36  32  87 CALM      30.35S
BEAUFORT MCAS  CLEAR     41  33  73 CALM      30.34F
6HR MIN TEMP:  40; 6HR MAX TEMP:  51;

BEAUFORT ARPT  FAIR      39  36  87 CALM      30.33F
HILTON HEAD IS CLEAR     37  34  87 CALM      30.35S
WALTERBORO     CLEAR     36  32  87 CALM      30.35S
ALLENDALE      FAIR      37  34  87 CALM      30.33S

...SOUTHERN MIDLANDS AND PEE DEE...

CITY           SKY/WX    TMP DP  RH WIND       PRES   REMARKS
GEORGETOWN     NOT AVBL
KINGSTREE      NOT AVBL
ORANGEBURG     CLEAR     38  29  70 CALM      30.33S
6HR MIN TEMP:  38; 6HR MAX TEMP:  50;

BARNWELL       FAIR      37  32  81 CALM      30.34R
AIKEN          FAIR      36  30  80 CALM      30.36R
MANNING        NOT AVBL
COLUMBIA       CLEAR     39  29  67 CALM      30.33R
6HR MIN TEMP:  37; 6HR MAX TEMP:  49;

SUMTER         CLEAR     39  28  65 CALM      30.32R
6HR MIN TEMP:  37; 6HR MAX TEMP:  48;

FLORENCE       CLEAR     38  27  64 CALM      30.33R
6HR MIN TEMP:  37; 6HR MAX TEMP:  49;

MYRTLE BEACH   CLEAR     37  28  70 N6        30.32S WCI  33
N MYRTLE BEACH CLEAR     35  30  82 CALM      30.33R
6HR MIN TEMP:  35; 6HR MAX TEMP:  49;


$$

GAZ063-065-086>088-099>101-113>116-118-119-134>141-150-290100-
...SOUTHEAST GEORGIA...

CITY           SKY/WX    TMP DP  RH WIND       PRES   REMARKS
SAVANNAH ARPT  CLEAR     43  31  62 CALM      30.33F
6HR MIN TEMP:  43; 6HR MAX TEMP:  54;

HUNTER AAF     CLEAR     41  33  73 SE2       30.31F
6HR MIN TEMP:  39; 6HR MAX TEMP:  52;

FORT STEWART   CLEAR     39  34  81 CALM      30.32F
6HR MIN TEMP:  39; 6HR MAX TEMP:  53;

STATESBORO     NOT AVBL
SYLVANIA       CLEAR     40  37  86 CALM      30.33S
CLAXTON        NOT AVBL

...CSRA...CENTRAL AND FAR SOUTHEAST GEORGIA...

CITY           SKY/WX    TMP DP  RH WIND       PRES   REMARKS
THOMSON        CLEAR     37  34  89 CALM      30.35F
AUGUSTA-BUSH   CLEAR     35  28  75 CALM      30.33R
6HR MIN TEMP:  35; 6HR MAX TEMP:  51;

AUGUSTA-DANIEL CLEAR     44  24  45 N5        30.32R
SWAINSBORO     FAIR      41  36  81 CALM      30.33R
VIDALIA        CLEAR     41  36  81 CALM      30.33S
HAZLEHURST     FAIR      41  36  84 CALM      30.33R
ALMA           CLEAR     39  34  82 CALM      30.32S
6HR MIN TEMP:  38; 6HR MAX TEMP:  52;

WAYCROSS       CLEAR     44  39  83 CALM      30.33S
JESUP          FAIR      39  37  93 CALM      30.34R
BAXLEY         FAIR      41  36  81 CALM      30.32S
BRUNSWICK      CLEAR     39  36  87 CALM      30.34S
SAINT SIMONS   CLEAR     42  34  73 CALM      30.34S
6HR MIN TEMP:  42; 6HR MAX TEMP:  51;


$$

SCZ027-028-034-036>038-045-046-048>050-GAZ119-141-290100-
...LAKE AND SUPPLEMENTAL COASTAL OBSERVATIONS...

STATION/POSITION TIME  TEMP    WIND        PRES    WAVE   SWELL
                       AIR SEA DIR/SP/G            HT/PER HT/PER/DIR
                 (UTC) (F)     (DEG/KT/KT) (MB)    (FT/S) (FT/S/D)
UPR LAKE MARION  NOT AVBL
WINYAH BAY       0000   38     300/  2     1027.0S
LAKE MURRAY      2300   43      CALM  /  3 1026.1R
ACE BASIN NERRS  0000   39        CALM     1027.0S
FORT PULASKI     0000   44     140/  4/  4 1027.3F
SAPELO ISLAND    0000   38      70/  2     1027.0S

$$

ANZ835-935-AMZ111-154-330-350-352-354-370-450-454-472-290100-
...C-MAN AND BUOY OBSERVATIONS...

STATION/POSITION TIME  TEMP    WIND        PRES    WAVE   SWELL
                       AIR SEA DIR/SP/G            HT/PER HT/PER/DIR
                 (UTC) (F)     (DEG/KT/KT) (MB)    (FT/S) (FT/S/D)
BUOY 41004       0000   49 72  360/  8/ 14 1026.9R   4/ 9   3/ 9
BUOY 41008       0000   48 62   40/  6/  8 1027.3F   3/ 7   3/ 70/ 7
FOLLY BEACH CMAN 0000   43     290/  3/  4 1027.9R
CAPERS NEARSHORE 2300   46     270/  4/  4   N/A
FRIPP NEARSHORE  NOT AVBL


STATION/POSITION TIME  TEMP    WIND        PRES    WAVE   SWELL
                       AIR SEA DIR/SP/G            HT/PER HT/PER/DIR
                 (UTC) (F)     (DEG/KT/KT) (MB)    (FT/S) (FT/S/D)
5E ST. MARYS GA  0000      60                N/A     3/ 6   2/120/13
FRYING PAN BUOY  0000   46 67   10/  4/ 10 1027.0R   3/ 9   3/100/ 9
BUOY 41025       0000   43     320/ 14/ 17 1026.4R   5/ 9   3/ 50/ 9
CAPE LOOKOUT NC  0000   43     360/  7/  8 1026.4R
BUOY 41002       NOT AVBL
BUOY 41010       0000   65 77   10/ 12/ 16 1023.1R   7/ 8   7/350/ 8
ST AUGUSTINE FL  0000   53      10/ 13/ 15 1026.8R


$$



USA.gov is the U.S. government's official web portal to all federal, state and local government web resources and services.